Overview Statistics Trail Chart Weather Telemetry Raw packets
 

This is the latest recevied weather packets stored in our database for station/object K9ZOG. If no packets are shown the sender has not sent any weather packets the latest 10 day(s).

<< 3 4 5 6 7 8 9 >>
Time Temp. Humidity Pressure Rain* Wind** Luminosity Snow
1788542186 21.67° C 99% 1016.6 hPa 0.51 mm - 172 W/m² -
1788541887 21.67° C 99% 1016.8 hPa 0.51 mm - 201 W/m² -
1788541585 21.11° C 99% 1016.7 hPa 0.51 mm - 230 W/m² -
1788541287 21.11° C 99% 1016.7 hPa 0.76 mm - 230 W/m² -
1788540986 20.56° C 99% 1017.2 hPa 0.76 mm - 182 W/m² -
1788540686 20.56° C 98% 1016 hPa 0.76 mm - 158 W/m² -
1788540387 20.56° C 98% 1015 hPa 0.76 mm - 128 W/m² -
1788540086 20.56° C 98% 1014.8 hPa 0.76 mm - 99 W/m² -
1788539786 20.56° C 97% 1014.1 hPa 0.76 mm - 63 W/m² -
1788539486 20.56° C 97% 1013.7 hPa 0.76 mm - 47 W/m² -
1788539185 20.56° C 98% 1014.5 hPa 1.02 mm - 37 W/m² -
1788538886 21.11° C 98% 1015.1 hPa 1.02 mm - 28 W/m² -
1788538299 21.11° C 99% 1016.4 hPa 3.56 mm - 20 W/m² -
1788537986 21.11° C 99% 1016.7 hPa 3.56 mm - 16 W/m² -
1788537690 21.11° C 99% 1017.2 hPa 4.32 mm - 12 W/m² -
1788537386 21.11° C 99% 1018.5 hPa 4.06 mm - 11 W/m² -
1788537085 21.11° C 99% 1018.9 hPa 4.06 mm - 10 W/m² -
1788536786 21.11° C 99% 1019 hPa 4.06 mm - 9 W/m² -
1788536486 21.11° C 99% 1018.6 hPa 3.81 mm - 9 W/m² -
1788536187 21.11° C 99% 1018.2 hPa 3.56 mm - 9 W/m² -
1788535889 21.11° C 99% 1017.9 hPa 3.56 mm - 11 W/m² -
1788535586 21.11° C 99% 1018.2 hPa 3.56 mm - 11 W/m² -
1788535286 21.11° C 99% 1018.4 hPa 3.05 mm - 11 W/m² -
1788534987 21.11° C 99% 1018.6 hPa 3.3 mm - 10 W/m² -
1788534685 20.56° C 99% 1018.6 hPa 3.05 mm - 8 W/m² -

* Rain latest hour (hover to see other rain measurements)
** Current wind speed in m/s (hover to see current wind gust speed)